Current weather by "City, St" or "zip code"  
 

Current Conditions: Medicine Lodge, Medicine Lodge, KS

NULL


49.0 F

Last Updated on Oct 31 2020, 12:56 am CDT
Humidity: 71%
Wind Speed: S 11.5 mph
Barometer 30.07 in
Dewpoint: 39.9 F
Visibility: NULL mi
Precip: --
Heat Index: NA
Wind Chill: 44 F
Current conditions at:

Medicine Lodge, Medicine Lodge, KS (KP28)

Lat: 37.28389 Lon: 98.55278

Local Radar Image active severe weather and emergency alerts image image weather storm and storm spotter reports image weather observation monitoring service image
Local
Radar
Active
Alerts
Storm Reports Obs
Monitoring

Sign-up For Email & Text Message Weather Alert Notification Services



Advertise Here

Observation History for Medicine Lodge, Medicine Lodge, KS


Time Wind
(mph)
Vis
(mi)
Weather Precip (in) Temperature (F) Relative
Humidity
Wind
Chill
(F)
Heat
Index
(F)
Pressure
Air Dwpt altimeter
(in)
sea level
(mb)
Rmks
12:56 am CDT S 11.5 NULL NULL -- 49.0 39.9 71% 44 NA 30.07 1018.2
11:56 pm CDT S 13.8 G 20.7 NULL NULL -- 50.0 41.0 71% 45 NA 30.09 1018.8
10:56 pm CDT SE 5.8 NULL NULL -- 50.0 41.0 71% 48 NA 30.10 1019.5
9:56 pm CDT S 6.9 NULL NULL -- 51.0 42.1 71% 48 NA 30.11 1020.0
8:56 pm CDT S 11.5 NULL NULL -- 53.0 42.1 66% 49 NA 30.11 1020.1
7:56 pm CDT S 11.5 G 21.9 NULL NULL -- 57.0 42.1 58% 54 NA 30.10 1019.9
6:56 pm CDT SE 8.1 NULL NULL -- 59.0 42.1 54% 58 NA 30.10 1019.8
5:56 pm CDT S 8.1 NULL NULL -- 64.0 42.1 45% NA NA 30.11 1019.8
4:56 pm CDT S 10.4 G 20.7 NULL NULL -- 66.0 44.1 45% NA NA 30.12 1020.1
3:56 pm CDT S 12.7 G 19.6 NULL NULL -- 66.0 42.1 42% NA NA 30.13 1020.4
2:56 pm CDT S 11.5 NULL NULL -- 66.0 42.1 42% NA NA 30.15 1021.2
1:56 pm CDT S 5.8 NULL NULL -- 65.0 42.1 43% NA NA 30.18 1022.0
12:56 pm CDT 5.8 NULL NULL -- 63.0 39.9 43% 63 NA 30.21 1023.3
11:56 am CDT SW 3.5 NULL NULL -- 57.0 41.0 55% NA NA 30.24 1024.4
10:56 am CDT 3.5 NULL NULL -- 51.0 43.0 74% NA NA 30.26 1025.2
9:56 am CDT N 0.0 NULL NULL -- 42.0 37.9 85% NA NA 30.27 1025.7
8:56 am CDT S 3.5 NULL NULL -- 36.0 34.0 93% NA NA 30.25 1025.1
7:56 am CDT N 0.0 NULL NULL -- 31.0 28.9 92% NA NA 30.23 1024.6
6:56 am CDT N 0.0 NULL NULL -- 30.0 28.9 96% NA NA 30.22 1024.3
5:56 am CDT S 3.5 NULL NULL -- 31.0 28.9 92% NA NA 30.21 1023.8
4:56 am CDT N 0.0 NULL NULL -- 31.0 30.0 96% NA NA 30.20 1023.3
3:56 am CDT N 0.0 NULL NULL -- 31.0 30.0 96% NA NA 30.21 1023.5
2:56 am CDT N 0.0 NULL NULL -- 32.0 30.0 92% NA NA 30.22 1023.9
1:56 am CDT N 0.0 NULL NULL -- 34.0 33.1 97% NA NA 30.22 1024.0

Regional Weather Observation


Medicine Lodge, Medicine Lodge, KS (KP28)

NULL
49.0 F

Alva, Alva Regional Airport, OK (KAVK)

Fair
46.0 F

Dodge City, Dodge City Regional Airport, KS (KDDC)

Fair
48.0 F

Great Bend, Great Bend Municipal Airport, KS (KGBD)

Fair
50.0 F

Wichita - Wichita Dwight D. Eisenhower National Airport, KS (KICT)

Partly Cloudy
45.0 F

McConnell Air Force Base, KS (KIAB)

Fair
47.0 F